Weather History for Boothville, LA

Change the Weather History Date:

Thursday, November 8, 2012

  Actual Average Record
Temperature  
Mean Temperature 56 °F -  
Max Temperature 62 °F - - ()
Min Temperature 50 °F - - ()
Degree Days  
Heating Degree Days 9    
Growing Degree Days 6 (Base 50)    
Moisture  
Dew Point 45 °F    
Average Humidity 62    
Maximum Humidity 93    
Minimum Humidity 53    
Precipitation  
Precipitation 0.00 in - - ()
Sea Level Pressure  
Sea Level Pressure 30.21 in    
Wind  
Wind Speed 8 mph (NE)    
Max Wind Speed 13 mph    
Max Gust Speed 18 mph    
Visibility 10 miles    
Events      
T = Trace of Precipitation, MM = Missing Value Source: NWS Daily Summary

Daily Weather History Graph

Daily Weather History Graph

Search for Another Location

Airport:

Trip Planner

Search our weather history database for the weather conditions in past years. The results will help you decide how hot, cold, wet, or windy it might be!

Date:

Astronomy

Nov. 08, 2012 Rise Set
Actual Time 6:16 AM CST 5:06 PM CST
Civil Twilight 5:51 AM CST 5:30 PM CST
Nautical Twilight 5:23 AM CST 5:59 PM CST
Astronomical Twilight 4:54 AM CST 6:27 PM CST
Moon 12:37 AM CST (11/8) 1:23 PM CST (11/8)
Length of Visible Light 11h 39m
Length of Day
10h 49m
Waning Crescent, 32% of the Moon is Illuminated
Nov 8
Waning Crescent
Nov 13
New
Nov 20
First Quarter
Nov 28
Full
Dec 6
Last Quarter

Hourly Weather History & Observations

Time (CST) Temp. Dew Point Humidity Pressure Visibility Wind Dir Wind Speed Gust Speed Precip Events Conditions
12:51 AM 59.0 °F 45.0 °F 60% 30.15 in 10.0 mi NNE 12.7 mph 18.4 mph N/A   Clear
1:51 AM 57.9 °F 45.0 °F 62% 30.15 in 10.0 mi NNE 8.1 mph - N/A   Clear
2:51 AM 57.0 °F 43.0 °F 59% 30.16 in 10.0 mi North 6.9 mph 16.1 mph N/A   Clear
3:51 AM 57.0 °F 43.0 °F 59% 30.16 in 10.0 mi NNE 8.1 mph - N/A   Clear
4:51 AM 55.9 °F 43.0 °F 62% 30.18 in 10.0 mi NE 9.2 mph - N/A   Clear
5:51 AM 55.9 °F 42.1 °F 60% 30.19 in 10.0 mi NE 8.1 mph - N/A   Clear
6:51 AM 55.9 °F 41.0 °F 57% 30.22 in 10.0 mi NE 9.2 mph - N/A   Clear
7:51 AM 57.9 °F 43.0 °F 58% 30.23 in 10.0 mi NNE 9.2 mph - N/A   Clear
8:51 AM 59.0 °F 44.1 °F 58% 30.25 in 10.0 mi NNE 8.1 mph - N/A   Clear
9:51 AM 61.0 °F 44.1 °F 54% 30.26 in 10.0 mi NNE 9.2 mph - N/A   Clear
10:51 AM 61.0 °F 44.1 °F 54% 30.25 in 10.0 mi NE 8.1 mph - N/A   Clear
11:51 AM 62.1 °F 45.0 °F 53% 30.24 in 10.0 mi Variable 6.9 mph - N/A   Clear
12:51 PM 61.0 °F 46.0 °F 58% 30.21 in 10.0 mi NNE 10.4 mph - N/A   Clear
1:51 PM 62.1 °F 46.9 °F 58% 30.20 in 10.0 mi NNE 6.9 mph - N/A   Clear
2:51 PM 62.1 °F 46.0 °F 56% 30.20 in 10.0 mi NE 8.1 mph - N/A   Clear
3:51 PM 60.1 °F 45.0 °F 57% 30.20 in 10.0 mi NNE 8.1 mph - N/A   Clear
4:51 PM 57.0 °F 44.1 °F 62% 30.20 in 10.0 mi NE 5.8 mph - N/A   Clear
5:51 PM 57.0 °F 42.1 °F 57% 30.20 in 10.0 mi NE 5.8 mph - N/A   Clear
6:51 PM 57.0 °F 44.1 °F 62% 30.21 in 10.0 mi NE 5.8 mph - N/A   Clear
7:51 PM 57.0 °F 45.0 °F 64% 30.22 in 10.0 mi ENE 6.9 mph - N/A   Clear
8:51 PM 57.0 °F 45.0 °F 64% 30.22 in 10.0 mi ENE 4.6 mph - N/A   Clear
9:51 PM 55.0 °F 46.0 °F 72% 30.22 in 10.0 mi Calm Calm - N/A   Clear
10:51 PM 50.0 °F 48.0 °F 93% 30.21 in 10.0 mi Calm Calm - N/A   Clear
11:51 PM 50.0 °F 48.0 °F 93% 30.21 in 10.0 mi Calm Calm - N/A   Clear